User: anonymous   Login
Location: Bemmer
(51.5498°N, 5.6249°E)
Time: 15:43:32
(UTC+00:00)
Language:

CSL-04 Debris - Orbit

View from above orbital plane
View from above orbital plane
View from above satellite
View from above satellite

Ground track
Ground track

The orbit data is extracted from the following two-line orbital elements,

1 25733U 99025D   21131.84658101  .00000091  00000-0  68073-4 0  9994
2 25733  98.9119 167.1933 0016120 108.1862 252.1068 14.16458220136181
Epoch (UTC): 11 May 2021 20:19:04
Eccentricity: 0.0016120
inclination: 98.9119°
perigee height: 826 km
apogee height: 849 km
right ascension of ascending node: 167.1933°
argument of perigee: 108.1862°
revolutions per day: 14.16458220
mean anomaly at epoch: 252.1068°
orbit number at epoch: 13618

The dashed part of the orbit path shows where the satellite is in the earth's shadow,  

DLR